User: anonymous   Login
Location: Ar Ranvel
(48.3000°N, 4.8833°W)
Time: 03:53:46
(UTC+00:00)
Language:

Terra - Orbit

View from above orbital plane
View from above orbital plane
View from above satellite
View from above satellite

Ground track
Ground track

The orbit data is extracted from the following two-line orbital elements,

1 25994U 99068A   21260.74302817  .00000066  00000-0  24513-4 0  9995
2 25994  98.1695 333.4472 0001413  93.8035  65.5080 14.57129038156907
Epoch (UTC): 17 September 2021 17:49:57
Eccentricity: 0.0001413
inclination: 98.1695°
perigee height: 701 km
apogee height: 703 km
right ascension of ascending node: 333.4472°
argument of perigee: 93.8035°
revolutions per day: 14.57129038
mean anomaly at epoch: 65.5080°
orbit number at epoch: 15690

The dashed part of the orbit path shows where the satellite is in the earth's shadow,  

DLR